This is the latest recevied weather packets stored in our database for station/object DL9LAF-4. If no packets are shown the sender has not sent any weather packets the latest 1 day(s).
| Time | Temp. | Humidity | Pressure | Rain* | Wind** | Luminosity | Snow |
|---|---|---|---|---|---|---|---|
| 1777989955 | 16.67° C | 59% | 988.2 hPa | 0 mm | 0 m/s | - | - |
| 1777989355 | 16.67° C | 59% | 988 hPa | 0 mm | 0 m/s | - | - |
| 1777988755 | 17.22° C | 58% | 988.4 hPa | 0 mm | 50.96 m/s, 337° | - | - |
| 1777988155 | 17.22° C | 59% | 988.4 hPa | 0 mm | 0 m/s | - | - |
| 1777987555 | 17.22° C | 58% | 988.4 hPa | 0 mm | 0 m/s | - | - |
| 1777986955 | 17.22° C | 59% | 988.4 hPa | 0 mm | 50.96 m/s, 337° | - | - |
| 1777986355 | 17.22° C | 59% | 988.5 hPa | 0 mm | 0 m/s | - | - |
| 1777985755 | 17.78° C | 59% | 988.5 hPa | 0 mm | 0 m/s | - | - |
| 1777985155 | 17.22° C | 60% | 988.5 hPa | 0 mm | 0 m/s | - | - |
| 1777984555 | 17.22° C | 59% | 988.5 hPa | 0 mm | 0 m/s | - | - |
| 1777983955 | 17.22° C | 59% | 988.5 hPa | 0 mm | 0 m/s | - | - |
| 1777983355 | 17.78° C | 59% | 988.5 hPa | 0 mm | 0 m/s | - | - |
| 1777982755 | 17.78° C | 59% | 988.7 hPa | 0 mm | 0 m/s | - | - |
| 1777982155 | 17.78° C | 58% | 988.7 hPa | 0 mm | 0 m/s | - | - |
| 1777981555 | 18.33° C | 59% | 988.5 hPa | 0 mm | 20.12 m/s, 270° | - | - |
| 1777980955 | 18.33° C | 59% | 988.7 hPa | 0 mm | 0 m/s | - | - |
| 1777980355 | 18.33° C | 60% | 988.5 hPa | 0 mm | 0 m/s | - | - |
| 1777979755 | 17.78° C | 61% | 988.7 hPa | 0 mm | 0 m/s | - | - |
| 1777979155 | 17.78° C | 61% | 988.7 hPa | 0 mm | 0 m/s | - | - |
| 1777978555 | 17.78° C | 63% | 988.9 hPa | 0 mm | 0 m/s | - | - |
| 1777977955 | 16.67° C | 63% | 989 hPa | 0 mm | 0 m/s | - | - |
| 1777977355 | 16.67° C | 65% | 989 hPa | 0 mm | 0 m/s | - | - |
| 1777976755 | 16.11° C | 67% | 989.2 hPa | 0 mm | 0 m/s | - | - |
| 1777976155 | 15.56° C | 68% | 989.2 hPa | 0 mm | 0 m/s | - | - |
| 1777975555 | 15° C | 70% | 989.2 hPa | 0 mm | 0 m/s | - | - |
* Rain latest hour (hover to see other rain measurements)
** Current wind speed in m/s (hover to see current wind gust speed)